Location: Zürich
(47.3769°N, 8.5417°E)
Time: 00:17:33
(UTC+02:00)

ISS - Pass Details

Date: 30 May 2020
Orbit: 419 x 420 km, 51.6° (Epoch: 19 September)

Event Time Altitude Azimuth Distance (km) Brightness Sun altitude
Rises 23:45:46 0° 287° (WNW) 2,381 0.7 -17.4°
Reaches altitude 10° 23:48:19 10° 268° (W) 1,513 -0.7 -17.6°
Enters shadow 23:50:22 18° 231° (SW) 1,124 -1.8 -17.7°
